Home   Weather   Vilnius   Past weeks

Flag for Lithuania Past Weather in Vilnius, Lithuania — Yesterday and Last 2 Weeks

Now
34 °F

Partly cloudy.


Feels Like: 24 °F
Forecast: 28 / 40 °F
Wind: 14 mph from Southwest

Location: Vilnius Airport

Current Time: Feb 23, 2017 at 5:01:31 am

Latest Report: Feb 23, 2017 at 4:20 am


Visibility: N/A

Pressure: 29.12 "Hg

Humidity: 93%

Dew Point: 32 °F

Location of VilniusLocation

Past Weather in Vilnius — Graph

°F

Vilnius Temperature Yesterday

Maximum temperature yesterday: 36 °F (at 12:20 am)
Minimum temperature yesterday: 27 °F (at 7:50 am)
Average temperature yesterday: 31 °F

High & Low Weather Summary for the Past Weeks

 TemperatureHumidityPressure
High41 °F (Feb 21, 7:20 am)100% (Feb 13, 10:57 pm)30.77 "Hg (Feb 13, 10:57 pm)
Low1 °F (Feb 8, 5:22 am)30% (Feb 9, 2:50 pm)29.12 "Hg (Feb 21, 6:20 am)
Average27 °F86%30.23 "Hg
* Reported Feb 8 3:20 am — Feb 23 3:50 am, Vilnius, Weather by CustomWeather, © 2017

Note: Actual official high and low records may vary slightly from our data, if they occured in-between our weather recording intervals... More about our weather records

Advertising

Vilnius Weather History for the Previous 24 Hours

Scroll right to see more
 ConditionsComfort  
Time TempWeatherWind HumidityBarometerVisibility
3:50 am
Thu, Feb 23
34 °FPartly cloudy.13 mph93%29.12 "HgN/A
3:20 am34 °FLight rain. Low clouds.13 mph93%29.15 "Hg5 mi
2:50 am34 °FLight rain. Overcast.13 mph93%29.15 "Hg2 mi
2:20 am34 °FLow clouds.13 mph93%29.15 "HgN/A
1:50 am36 °FLow clouds.14 mph93%29.15 "HgN/A
1:20 am36 °FLow clouds.14 mph93%29.15 "HgN/A
12:50 am34 °FPassing clouds.10 mph100%29.15 "HgN/A
12:20 am34 °FPassing clouds.9 mph100%29.15 "Hg6 mi
11:50 pm
Wed, Feb 22
34 °FPassing clouds.8 mph100%29.15 "Hg4 mi
11:20 pm34 °FPartly cloudy.9 mph100%29.15 "Hg4 mi
10:50 pm34 °FFog.8 mph100%29.18 "Hg2 mi
10:05 pm34 °FFog.8 mph100%29.15 "Hg2 mi
9:20 pm34 °FPartly cloudy.9 mph100%29.18 "Hg5 mi
8:50 pm34 °FLight rain. Fog.12 mph100%29.18 "Hg3 mi
8:20 pm34 °FFog.13 mph100%29.18 "Hg3 mi
7:50 pm32 °FIce fog.15 mph100%29.18 "Hg3 mi
7:20 pm32 °FRain. Low clouds.17 mph100%29.18 "Hg2 mi
6:50 pm32 °FLight rain. Low clouds.18 mph100%29.18 "Hg3 mi
6:08 pm32 °FLight rain. Ice fog.21 mph100%29.18 "Hg3 mi
5:20 pm32 °FRain. Low clouds.17 mph100%29.21 "Hg1 mi
4:50 pm32 °FSnow. Low clouds.17 mph100%29.24 "Hg1 mi
4:20 pm32 °FSnow. Low clouds.17 mph93%29.27 "Hg1 mi
3:50 pm30 °FSnow. Low clouds.15 mph100%29.30 "Hg1 mi
3:20 pm30 °FHeavy snow. Low clouds.15 mph100%29.33 "Hg1 mi
2:50 pm30 °FSnow. Overcast.13 mph93%29.36 "Hg2 mi
2:21 pm30 °FSnow. Overcast.15 mph86%29.39 "Hg3 mi
1:50 pm32 °FPartly sunny.15 mph80%29.42 "HgN/A
1:20 pm30 °FBroken clouds.17 mph80%29.45 "HgN/A
12:50 pm30 °FBroken clouds.16 mph80%29.45 "HgN/A
12:20 pm30 °FPartly sunny.15 mph80%29.47 "HgN/A
11:50 am30 °FBroken clouds.13 mph75%29.50 "HgN/A
11:20 am28 °FBroken clouds.13 mph80%29.50 "HgN/A
10:50 am28 °FBroken clouds.12 mph80%29.53 "HgN/A
10:20 am28 °FPartly sunny.8 mph74%29.53 "HgN/A
9:50 am27 °FPartly sunny.6 mph80%29.53 "HgN/A
9:20 am27 °FPartly sunny.6 mph74%29.56 "HgN/A
8:53 am27 °FPartly sunny.9 mph80%29.56 "HgN/A
8:20 am27 °FPartly sunny.5 mph74%29.56 "HgN/A
7:50 am27 °FPartly sunny.6 mph80%29.56 "HgN/A
7:20 am28 °FPassing clouds.8 mph74%29.56 "HgN/A
6:50 am28 °FOvercast.9 mph80%29.56 "HgN/A
6:20 am28 °FOvercast.10 mph80%29.56 "HgN/A
5:50 am28 °FLight snow. Low clouds.8 mph86%29.53 "HgN/A
5:20 am30 °FLow clouds.9 mph80%29.53 "HgN/A
Weather by CustomWeather, © 2017

See weather overviewHow to use our weather pages